Weather History for North Island, CA

Change the Weather History Date:

Saturday, March 23, 2013

  Actual Average Record
Temperature  
Mean Temperature 60 °F -  
Max Temperature 64 °F 62 °F 87 °F (2008)
Min Temperature 57 °F 52 °F 48 °F (2006)
Degree Days  
Heating Degree Days 4    
Growing Degree Days 10 (Base 50)    
Moisture  
Dew Point 52 °F    
Average Humidity 74    
Maximum Humidity 84    
Minimum Humidity 63    
Precipitation  
Precipitation 0.00 in - - ()
Sea Level Pressure  
Sea Level Pressure 29.97 in    
Wind  
Wind Speed 6 mph (South)    
Max Wind Speed 9 mph    
Max Gust Speed -    
Visibility 7 miles    
Events      
Averages and records for this station are not official NWS values.
T = Trace of Precipitation, MM = Missing Value Source: NWS Daily Summary

Daily Weather History Graph

Daily Weather History Graph

Search for Another Location

Airport:

Trip Planner

Search our weather history database for the weather conditions in past years. The results will help you decide how hot, cold, wet, or windy it might be!

Date:

Astronomy

Mar. 23, 2013 Rise Set
Actual Time 6:48 AM PDT 7:02 PM PDT
Civil Twilight 6:23 AM PDT 7:27 PM PDT
Nautical Twilight 5:54 AM PDT 7:56 PM PDT
Astronomical Twilight 5:25 AM PDT 8:25 PM PDT
Moon 3:43 PM PDT (3/23) 4:16 AM PDT (3/23)
Length of Visible Light 13h 03m
Length of Day
12h 14m
Waxing Gibbous, 86% of the Moon is Illuminated
Mar 23
Waxing Gibbous
Mar 27
Full
Apr 2
Last Quarter
Apr 10
New
Apr 18
First Quarter

Hourly Weather History & Observations

Time (PDT) Temp. Dew Point Humidity Pressure Visibility Wind Dir Wind Speed Gust Speed Precip Events Conditions
12:52 AM 57.9 °F 52.0 °F 81% 29.92 in 6.0 mi SSE 5.8 mph - N/A   Partly Cloudy
1:52 AM 57.9 °F 53.1 °F 84% 29.92 in 6.0 mi South 6.9 mph - N/A   Partly Cloudy
2:52 AM 57.9 °F 53.1 °F 84% 29.92 in 7.0 mi South 8.1 mph - N/A   Overcast
3:52 AM 59.0 °F 53.1 °F 81% 29.91 in 7.0 mi South 8.1 mph - N/A   Overcast
4:52 AM 59.0 °F 52.0 °F 78% 29.92 in 7.0 mi SE 6.9 mph - N/A   Overcast
5:52 AM 57.9 °F 51.1 °F 78% 29.94 in 8.0 mi East 5.8 mph - N/A   Overcast
6:52 AM 57.9 °F 51.1 °F 78% 29.95 in 7.0 mi ESE 4.6 mph - N/A   Overcast
7:52 AM 59.0 °F 52.0 °F 78% 29.96 in 7.0 mi SE 8.1 mph - N/A   Overcast
8:52 AM 59.0 °F 52.0 °F 78% 29.98 in 6.0 mi SE 9.2 mph - N/A   Overcast
9:52 AM 60.1 °F 52.0 °F 75% 30.00 in 6.0 mi Calm Calm - N/A   Haze
10:52 AM 60.1 °F 51.1 °F 72% 30.01 in 6.0 mi South 3.5 mph - N/A   Haze
11:52 AM 63.0 °F 52.0 °F 67% 29.99 in 6.0 mi South 6.9 mph - N/A   Haze
12:22 PM 62.6 °F 51.8 °F 68% 29.99 in 6.0 mi SSW 8.1 mph - N/A   Haze
12:52 PM 63.0 °F 51.1 °F 65% 29.99 in 7.0 mi SSW 9.2 mph - N/A   Partly Cloudy
1:52 PM 64.0 °F 51.1 °F 63% 29.99 in 8.0 mi SW 8.1 mph - N/A   Partly Cloudy
2:52 PM 64.0 °F 51.1 °F 63% 29.98 in 8.0 mi SSW 9.2 mph - N/A   Partly Cloudy
3:52 PM 63.0 °F 51.1 °F 65% 29.96 in 10.0 mi SSW 8.1 mph - N/A   Scattered Clouds
4:52 PM 63.0 °F 51.1 °F 65% 29.95 in 9.0 mi SSW 8.1 mph - N/A   Mostly Cloudy
5:52 PM 61.0 °F 51.1 °F 70% 29.95 in 9.0 mi SSW 5.8 mph - N/A   Mostly Cloudy
6:52 PM 60.1 °F 50.0 °F 69% 29.96 in 9.0 mi SW 3.5 mph - N/A   Mostly Cloudy
7:52 PM 59.0 °F 51.1 °F 75% 29.98 in 9.0 mi Calm Calm - N/A   Mostly Cloudy
8:52 PM 59.0 °F 52.0 °F 78% 30.00 in 9.0 mi Calm Calm - N/A   Mostly Cloudy
9:52 PM 59.0 °F 52.0 °F 78% 30.02 in 8.0 mi NW 3.5 mph - N/A   Mostly Cloudy
10:52 PM 57.9 °F 52.0 °F 81% 30.02 in 8.0 mi Calm Calm - N/A   Scattered Clouds
11:52 PM 57.9 °F 52.0 °F 81% 30.02 in 7.0 mi Calm Calm - N/A   Scattered Clouds